Location: Batang Balui
(2.7000°N, 113.7833°E)
Time: 23:46:48
(UTC+00:00)

Meteor 1-19 Rocket - Pass Details

Date: 03 December 2021
Orbit: 808 x 927 km, 81.2° (Epoch: 27 January)

Event Time Altitude Azimuth Distance (km) Brightness Sun altitude
Rises 11:41:51 0° 181° (S) 3,545 7.7 -21.2°
Reaches altitude 10° 11:44:19 10° 179° (S) 2,611 7.0 -21.7°
Maximum altitude 11:50:17 72° 95° (E) 968 4.2 -23.1°
Enters shadow 11:52:37 39° 21° (NNE) 1,357 4.9 -23.6°
